This is the latest recevied weather packets stored in our database for station/object N4BBA. If no packets are shown the sender has not sent any weather packets the latest 10 day(s).
| Time | Temp. | Humidity | Pressure | Rain* | Wind** | Luminosity | Snow |
|---|---|---|---|---|---|---|---|
| 1777994056 | 22.78° C | 62% | 1017.1 hPa | 0 mm | - | 716 W/m² | - |
| 1777993754 | 23.33° C | 61% | 1017.1 hPa | 0 mm | - | 706 W/m² | - |
| 1777993451 | 22.22° C | 63% | 1017.2 hPa | 0 mm | - | 698 W/m² | - |
| 1777993150 | 22.22° C | 63% | 1017.2 hPa | 0 mm | - | 687 W/m² | - |
| 1777992849 | 22.22° C | 63% | 1017.3 hPa | 0 mm | - | 673 W/m² | - |
| 1777992546 | 22.22° C | 63% | 1017.3 hPa | 0 mm | - | 666 W/m² | - |
| 1777992244 | 22.22° C | 65% | 1017.2 hPa | 0 mm | - | 652 W/m² | - |
| 1777991941 | 21.67° C | 65% | 1017.2 hPa | 0 mm | - | 640 W/m² | - |
| 1777991639 | 21.67° C | 65% | 1017.1 hPa | 0 mm | - | 629 W/m² | - |
| 1777991336 | 21.11° C | 66% | 1017 hPa | 0 mm | - | 616 W/m² | - |
| 1777991033 | 21.11° C | 67% | 1016.8 hPa | 0 mm | - | 602 W/m² | - |
| 1777990730 | 21.11° C | 67% | 1017.3 hPa | 0 mm | - | 588 W/m² | - |
| 1777990428 | 21.11° C | 67% | 1017.1 hPa | 0 mm | - | 574 W/m² | - |
| 1777989820 | 20.56° C | 68% | 1017.3 hPa | 0 mm | - | 544 W/m² | - |
| 1777989518 | 20.56° C | 69% | 1017.1 hPa | 0 mm | - | 531 W/m² | - |
| 1777989214 | 20.56° C | 70% | 1017.3 hPa | 0 mm | - | 518 W/m² | - |
| 1777988910 | 20° C | 70% | 1017.1 hPa | 0 mm | - | 506 W/m² | - |
| 1777988607 | 20.56° C | 71% | 1017.1 hPa | 0 mm | - | 495 W/m² | - |
| 1777988303 | 20° C | 71% | 1017.1 hPa | 0 mm | - | 432 W/m² | - |
| 1777988000 | 20° C | 72% | 1017.1 hPa | 0 mm | - | 392 W/m² | - |
| 1777987696 | 20° C | 72% | 1017.2 hPa | 0 mm | - | 408 W/m² | - |
| 1777987393 | 19.44° C | 73% | 1017.1 hPa | 0 mm | - | 407 W/m² | - |
| 1777987091 | 19.44° C | 73% | 1017.1 hPa | 0 mm | - | 419 W/m² | - |
| 1777986788 | 19.44° C | 73% | 1017.1 hPa | 0 mm | - | 374 W/m² | - |
| 1777986485 | 18.89° C | 74% | 1017.3 hPa | 0 mm | - | 392 W/m² | - |
* Rain latest hour (hover to see other rain measurements)
** Current wind speed in m/s (hover to see current wind gust speed)